Location: Newark
(59.8814°N, 10.8258°E)
Time: 02:04:04
(UTC+00:00)

Envisat - Pass Details

Date: 25 January 2020
Orbit: 764 x 766 km, 98.1° (Epoch: 25 February)

Event Time Altitude Azimuth Distance (km) Brightness Sun altitude
Rises 17:31:25 0° 186° (S) 3,227 6.4 -16.6°
Reaches altitude 10° 17:33:50 10° 194° (SSW) 2,305 5.8 -16.9°
Maximum altitude 17:38:37 40° 264° (W) 1,119 4.4 -17.5°
Drops below altitude 10° 17:43:26 10° 334° (NNW) 2,319 5.7 -18.1°
Sets 17:45:54 0° 342° (NNW) 3,250 6.4 -18.4°
